| time (UTC) | temp F | wind direction | speed MPH | gust MPH | rain 1hr in | rain 24hr in | rain mn in | humidity % | barometer mb |
| 20260903220059 | 71 | 329 | 14.0 | 25.0 | 0.00 | 0.00 | 0.00 | 61 | 1018.6 |
| 20260903214553 | 71 | 328 | 17.0 | 24.0 | 0.00 | 0.00 | 0.00 | 61 | 1018.7 |
| 20260903213108 | 71 | 331 | 14.0 | 25.0 | 0.00 | 0.00 | 0.00 | 60 | 1018.6 |
| 20260903211552 | 72 | 328 | 14.0 | 32.0 | 0.00 | 0.00 | 0.00 | 58 | 1018.5 |
| 20260903210052 | 72 | 336 | 16.0 | 33.0 | 0.00 | 0.00 | 0.00 | 58 | 1018.5 |
| 20260903204551 | 73 | 332 | 11.0 | 23.0 | 0.00 | 0.00 | 0.00 | 57 | 1018.6 |
| 20260903203055 | 74 | 314 | 20.0 | 35.0 | 0.00 | 0.00 | 0.00 | 55 | 1018.4 |
| 20260903201551 | 74 | 329 | 23.0 | 39.0 | 0.00 | 0.00 | 0.00 | 53 | 1018.1 |
| 20260903200050 | 75 | 346 | 16.0 | 36.0 | 0.00 | 0.00 | 0.00 | 51 | 1018.1 |
| 20260903194549 | 76 | 334 | 13.0 | 22.0 | 0.00 | 0.00 | 0.00 | 50 | 1017.9 |
| 20260903193049 | 76 | 333 | 12.0 | 25.0 | 0.00 | 0.00 | 0.00 | 49 | 1017.6 |
| 20260903191549 | 76 | 352 | 11.0 | 21.0 | 0.00 | 0.00 | 0.00 | 48 | 1017.4 |
| 20260903190049 | 77 | 342 | 12.0 | 24.0 | 0.00 | 0.00 | 0.00 | 47 | 1017.6 |
| 20260903184550 | 77 | 337 | 12.0 | 22.0 | 0.00 | 0.00 | 0.00 | 47 | 1017.5 |
| 20260903183047 | 77 | 333 | 14.0 | 25.0 | 0.00 | 0.00 | 0.00 | 46 | 1017.2 |
| 20260903181546 | 77 | 344 | 10.0 | 21.0 | 0.00 | 0.00 | 0.00 | 46 | 1017.2 |
| 20260903180046 | 77 | 348 | 12.0 | 21.0 | 0.00 | 0.00 | 0.00 | 45 | 1016.8 |
| 20260903174545 | 78 | 330 | 12.0 | 21.0 | 0.00 | 0.00 | 0.00 | 45 | 1016.9 |
| 20260903173044 | 78 | 325 | 15.0 | 25.0 | 0.00 | 0.00 | 0.00 | 44 | 1016.7 |
| 20260903171547 | 79 | 333 | 17.0 | 34.0 | 0.00 | 0.00 | 0.00 | 43 | 1016.9 |
| 20260903170048 | 79 | 342 | 15.0 | 38.0 | 0.00 | 0.00 | 0.00 | 42 | 1016.8 |
| 20260903164543 | 79 | 317 | 18.0 | 31.0 | 0.00 | 0.00 | 0.00 | 42 | 1016.7 |
| 20260903163057 | 79 | 335 | 16.0 | 24.0 | 0.00 | 0.00 | 0.00 | 42 | 1016.6 |
| 20260903161541 | 80 | 353 | 25.0 | 41.0 | 0.00 | 0.00 | 0.00 | 41 | 1016.8 |
| 20260903160041 | 80 | 334 | 23.0 | 47.0 | 0.00 | 0.00 | 0.00 | 41 | 1016.5 |
| 20260903154540 | 80 | 329 | 21.0 | 48.0 | 0.00 | 0.00 | 0.00 | 41 | 1016.6 |
| 20260903153041 | 80 | 335 | 23.0 | 44.0 | 0.00 | 0.00 | 0.00 | 41 | 1016.7 |
| 20260903151541 | 81 | 325 | 21.0 | 45.0 | 0.00 | 0.00 | 0.00 | 41 | 1016.9 |
| 20260903150038 | 81 | 345 | 24.0 | 49.0 | 0.00 | 0.00 | 0.00 | 41 | 1016.7 |
| 20260903144545 | 81 | 354 | 20.0 | 54.0 | 0.00 | 0.00 | 0.00 | 40 | 1016.8 |
| 20260903143037 | 81 | 3 | 28.0 | 58.0 | 0.00 | 0.00 | 0.00 | 39 | 1016.6 |
| 20260903141536 | 81 | 344 | 30.0 | 57.0 | 0.00 | 0.00 | 0.00 | 36 | 1016.5 |
| 20260903140036 | 81 | 321 | 26.0 | 58.0 | 0.00 | 0.00 | 0.00 | 36 | 1016.7 |
| 20260903134532 | 81 | 329 | 12.0 | 39.0 | 0.00 | 0.00 | 0.00 | 41 | 1016.8 |
| 20260903133034 | 80 | 337 | 12.0 | 30.0 | 0.00 | 0.00 | 0.00 | 44 | 1016.8 |
| 20260903131529 | 80 | 317 | 29.0 | 46.0 | 0.00 | 0.00 | 0.00 | 44 | 1017.1 |
| 20260903130028 | 80 | 298 | 18.0 | 41.0 | 0.00 | 0.00 | 0.00 | 44 | 1017.1 |
| 20260903124525 | 80 | 340 | 15.0 | 32.0 | 0.00 | 0.00 | 0.00 | 45 | 1017.4 |
| 20260903123024 | 79 | 321 | 21.0 | 42.0 | 0.00 | 0.00 | 0.00 | 46 | 1017.4 |
| 20260903121529 | 80 | 325 | 25.0 | 49.0 | 0.00 | 0.00 | 0.00 | 43 | 1017.5 |
| 20260903120023 | 80 | 350 | 18.0 | 32.0 | 0.00 | 0.00 | 0.00 | 44 | 1017.6 |
| 20260903114520 | 80 | 343 | 27.0 | 44.0 | 0.00 | 0.00 | 0.00 | 44 | 1017.5 |
| 20260903113019 | 79 | 337 | 20.0 | 43.0 | 0.00 | 0.00 | 0.00 | 46 | 1017.6 |
| 20260903111518 | 80 | 320 | 21.0 | 46.0 | 0.00 | 0.00 | 0.00 | 45 | 1017.7 |
| 20260903110019 | 80 | 7 | 23.0 | 43.0 | 0.00 | 0.00 | 0.00 | 44 | 1017.8 |
| 20260903104517 | 80 | 345 | 13.0 | 44.0 | 0.00 | 0.00 | 0.00 | 46 | 1017.8 |
| 20260903103019 | 80 | 347 | 27.0 | 43.0 | 0.00 | 0.00 | 0.00 | 45 | 1018.0 |
| 20260903101512 | 80 | 332 | 17.0 | 36.0 | 0.00 | 0.00 | 0.00 | 47 | 1018.1 |
| 20260903100009 | 79 | 350 | 15.0 | 31.0 | 0.00 | 0.00 | 0.00 | 47 | 1018.3 |
| 20260903094506 | 78 | 330 | 18.0 | 41.0 | 0.00 | 0.00 | 0.00 | 48 | 1018.5 |
| 20260903093004 | 78 | 23 | 7.0 | 30.0 | 0.00 | 0.00 | 0.00 | 48 | 1018.7 |
| 20260903091501 | 77 | 24 | 17.0 | 34.0 | 0.00 | 0.00 | 0.00 | 48 | 1018.9 |
| 20260903084558 | 77 | 319 | 20.0 | 35.0 | 0.00 | 0.00 | 0.00 | 51 | 1019.1 |
| 20260903083054 | 76 | 304 | 15.0 | 32.0 | 0.00 | 0.00 | 0.00 | 52 | 1019.1 |
| 20260903081552 | 76 | 345 | 25.0 | 41.0 | 0.00 | 0.00 | 0.00 | 52 | 1019.1 |
| 20260903080049 | 75 | 358 | 9.0 | 18.0 | 0.00 | 0.00 | 0.00 | 56 | 1019.1 |
| 20260903074603 | 74 | 320 | 11.0 | 24.0 | 0.00 | 0.00 | 0.00 | 59 | 1019.1 |
| 20260903073048 | 73 | 337 | 0.0 | 9.0 | 0.00 | 0.00 | 0.00 | 62 | 1019.0 |
| 20260903071538 | 71 | 338 | 0.0 | 0.0 | 0.00 | 0.00 | 0.00 | 66 | 1018.9 |
| 20260903070037 | 69 | 338 | 0.0 | 0.0 | 0.00 | 0.00 | 0.00 | 68 | 1019.1 |
| 20260903064533 | 68 | 338 | 0.0 | 0.0 | 0.00 | 0.00 | 0.00 | 69 | 1019.0 |
| 20260903063031 | 67 | 338 | 0.0 | 0.0 | 0.00 | 0.00 | 0.00 | 69 | 1019.0 |
| 20260903061549 | 67 | 338 | 0.0 | 0.0 | 0.00 | 0.00 | 0.00 | 69 | 1019.1 |
| 20260903060029 | 67 | 338 | 0.0 | 0.0 | 0.00 | 0.00 | 0.00 | 70 | 1019.1 |
| 20260903054527 | 66 | 338 | 0.0 | 0.0 | 0.00 | 0.00 | 0.00 | 68 | 1019.0 |
| 20260903053025 | 66 | 338 | 0.0 | 0.0 | 0.00 | 0.00 | 0.00 | 68 | 1018.8 |
| 20260903051524 | 67 | 338 | 0.0 | 0.0 | 0.00 | 0.00 | 0.00 | 69 | 1019.0 |
| 20260903050024 | 67 | 338 | 0.0 | 0.0 | 0.00 | 0.00 | 0.00 | 68 | 1018.7 |
| 20260903044519 | 67 | 338 | 0.0 | 0.0 | 0.00 | 0.00 | 0.00 | 66 | 1018.5 |
| 20260903043017 | 67 | 338 | 0.0 | 0.0 | 0.00 | 0.00 | 0.00 | 64 | 1018.4 |
| 20260903041523 | 67 | 338 | 0.0 | 0.0 | 0.00 | 0.00 | 0.00 | 63 | 1018.5 |
| 20260903040014 | 67 | 338 | 0.0 | 0.0 | 0.00 | 0.00 | 0.00 | 64 | 1018.4 |
| 20260903034512 | 67 | 338 | 0.0 | 0.0 | 0.00 | 0.00 | 0.00 | 64 | 1018.3 |
| 20260903033015 | 67 | 338 | 0.0 | 0.0 | 0.00 | 0.00 | 0.00 | 64 | 1018.1 |
| 20260903031519 | 67 | 338 | 0.0 | 0.0 | 0.00 | 0.00 | 0.00 | 62 | 1018.2 |
| 20260903030012 | 67 | 338 | 0.0 | 0.0 | 0.00 | 0.00 | 0.00 | 62 | 1018.2 |
| 20260903024509 | 67 | 338 | 0.0 | 0.0 | 0.00 | 0.00 | 0.00 | 62 | 1018.2 |
| 20260903023008 | 68 | 338 | 0.0 | 0.0 | 0.00 | 0.00 | 0.00 | 61 | 1018.1 |
| 20260903021506 | 68 | 338 | 0.0 | 0.0 | 0.00 | 0.00 | 0.00 | 61 | 1018.0 |
| 20260903020012 | 68 | 338 | 0.0 | 0.0 | 0.00 | 0.00 | 0.00 | 60 | 1018.1 |
| 20260903014501 | 69 | 338 | 0.0 | 0.0 | 0.00 | 0.00 | 0.00 | 59 | 1018.2 |
| 20260903013105 | 69 | 338 | 0.0 | 0.0 | 0.00 | 0.00 | 0.00 | 58 | 1018.2 |
| 20260903011620 | 70 | 338 | 0.0 | 0.0 | 0.00 | 0.00 | 0.00 | 57 | 1018.3 |
| 20260903010110 | 70 | 338 | 0.0 | 0.0 | 0.00 | 0.00 | 0.00 | 57 | 1018.3 |
| 20260903004604 | 70 | 338 | 0.0 | 0.0 | 0.00 | 0.00 | 0.00 | 56 | 1018.4 |
| 20260903003109 | 70 | 338 | 0.0 | 0.0 | 0.00 | 0.00 | 0.00 | 56 | 1018.3 |
| 20260903001601 | 70 | 338 | 0.0 | 0.0 | 0.00 | 0.00 | 0.00 | 57 | 1018.4 |
| 20260903000055 | 70 | 338 | 0.0 | 0.0 | 0.00 | 0.00 | 0.00 | 57 | 1018.4 |
| 20260902234557 | 70 | 338 | 0.0 | 0.0 | 0.00 | 0.00 | 0.00 | 57 | 1018.4 |
| 20260902233053 | 70 | 343 | 0.0 | 0.0 | 0.00 | 0.00 | 0.00 | 56 | 1018.4 |
| 20260902231552 | 71 | 345 | 0.0 | 0.0 | 0.00 | 0.00 | 0.00 | 56 | 1018.3 |
| 20260902230058 | 71 | 345 | 0.0 | 0.0 | 0.00 | 0.00 | 0.00 | 55 | 1018.3 |
| 20260902224552 | 71 | 345 | 0.0 | 0.0 | 0.00 | 0.00 | 0.00 | 55 | 1018.3 |
| 20260902223046 | 71 | 345 | 0.0 | 0.0 | 0.00 | 0.00 | 0.00 | 54 | 1018.2 |
| 20260902221543 | 72 | 345 | 1.0 | 16.0 | 0.00 | 0.00 | 0.00 | 53 | 1018.2 |